This is the latest recevied weather packets stored in our database for station/object JA6YCL-13. If no packets are shown the sender has not sent any weather packets the latest 1 day(s).
| Time | Temp. | Humidity | Pressure | Rain* | Wind** | Luminosity | Snow |
|---|---|---|---|---|---|---|---|
| 1777996833 | 12.22° C | 80% | 1020.8 hPa | 0 mm | 0.89 m/s, 246° | - | - |
| 1777996029 | 12.22° C | 79% | 1020.7 hPa | 0 mm | 0.45 m/s, 242° | - | - |
| 1777995258 | 12.22° C | 79% | 1020.7 hPa | 0 mm | 0.45 m/s, 227° | - | - |
| 1777994493 | 12.22° C | 79% | 1020.8 hPa | 0 mm | 0.89 m/s, 237° | - | - |
| 1777993643 | 12.78° C | 79% | 1021.1 hPa | 0 mm | 0.89 m/s, 233° | - | - |
| 1777992913 | 12.78° C | 77% | 1021 hPa | 0 mm | 1.34 m/s, 240° | - | - |
| 1777992078 | 12.78° C | 76% | 1021.1 hPa | 0 mm | 2.24 m/s, 243° | - | - |
| 1777991333 | 13.33° C | 74% | 1021 hPa | 0 mm | 1.34 m/s, 241° | - | - |
| 1777990527 | 13.89° C | 73% | 1021 hPa | 0 mm | 1.34 m/s, 244° | - | - |
| 1777989808 | 13.89° C | 70% | 1020.8 hPa | 0 mm | 1.34 m/s, 259° | - | - |
| 1777989085 | 14.44° C | 69% | 1020.9 hPa | 0 mm | 0.89 m/s, 247° | - | - |
| 1777988328 | 14.44° C | 67% | 1020.8 hPa | 0 mm | 0.89 m/s, 250° | - | - |
| 1777987597 | 15° C | 66% | 1020.9 hPa | 0 mm | 0.89 m/s, 244° | - | - |
| 1777986698 | 15.56° C | 63% | 1020.8 hPa | 0 mm | 0.45 m/s, 249° | - | - |
| 1777985803 | 15.56° C | 63% | 1020.8 hPa | 0 mm | 0.45 m/s, 262° | - | - |
| 1777984958 | 16.11° C | 59% | 1020.5 hPa | 0 mm | 0.45 m/s, 260° | - | - |
| 1777984193 | 16.11° C | 61% | 1020.6 hPa | 0 mm | 0.45 m/s, 188° | - | - |
| 1777983453 | 16.11° C | 61% | 1020.6 hPa | 0 mm | 0 m/s | - | - |
| 1777982673 | 16.67° C | 62% | 1020.3 hPa | 0 mm | 0.45 m/s, 229° | - | - |
| 1777981783 | 16.67° C | 61% | 1020 hPa | 0 mm | 0.45 m/s, 164° | - | - |
| 1777981058 | 16.67° C | 61% | 1019.8 hPa | 0 mm | 0.89 m/s, 185° | - | - |
| 1777980235 | 16.67° C | 60% | 1019.7 hPa | 0 mm | 0.45 m/s, 195° | - | - |
| 1777979483 | 16.67° C | 61% | 1019.6 hPa | 0 mm | 0.89 m/s, 154° | - | - |
| 1777978748 | 16.67° C | 60% | 1019.4 hPa | 0 mm | 0.45 m/s, 126° | - | - |
| 1777977952 | 17.22° C | 59% | 1019.1 hPa | 0 mm | 0.89 m/s, 195° | - | - |
* Rain latest hour (hover to see other rain measurements)
** Current wind speed in m/s (hover to see current wind gust speed)